| time (UTC) | temp C | wind direction | speed KPH | gust KPH | rain 1hr cm | rain 24hr cm | rain mn cm | humidity % | barometer mb |
| 20260506013211 | 8 | 15 | 3.2 | 0.0 | 0.00 | 0.00 | 0.03 | 76 | 1009.0 |
| 20260506010213 | 8 | 75 | 0.0 | 0.0 | 0.00 | 0.00 | 0.00 | 76 | 1009.0 |
| 20260506003209 | 9 | 118 | 3.2 | 0.0 | 0.00 | 0.00 | 0.00 | 76 | 1009.0 |
| 20260506000211 | 9 | 42 | 0.0 | 0.0 | 0.00 | 0.00 | 0.00 | 76 | 1009.5 |
| 20260505233209 | 10 | 42 | 0.0 | 0.0 | 0.00 | 0.00 | 0.00 | 76 | 1009.7 |
| 20260505230209 | 11 | 283 | 8.0 | 0.0 | 0.00 | 0.00 | 0.00 | 75 | 1009.6 |
| 20260505223210 | 11 | 336 | 3.2 | 0.0 | 0.00 | 0.00 | 0.00 | 76 | 1009.6 |
| 20260505220209 | 11 | 337 | 6.4 | 0.0 | 0.00 | 0.00 | 0.00 | 76 | 1009.5 |
| 20260505213211 | 11 | 15 | 3.2 | 0.0 | 0.00 | 0.00 | 0.46 | 76 | 1009.6 |
| 20260505210215 | 12 | 332 | 4.8 | 0.0 | 0.00 | 0.00 | 0.46 | 76 | 1009.7 |
| 20260505203209 | 12 | 360 | 4.8 | 0.0 | 0.00 | 0.00 | 0.46 | 77 | 1009.4 |
| 20260505200210 | 12 | 290 | 6.4 | 0.0 | 0.00 | 0.00 | 0.46 | 77 | 1009.0 |
| 20260505193209 | 12 | 350 | 8.0 | 0.0 | 0.00 | 0.00 | 0.46 | 77 | 1008.7 |
| 20260505190215 | 12 | 113 | 1.6 | 0.0 | 0.00 | 0.00 | 0.46 | 77 | 1008.6 |
| 20260505183212 | 13 | 113 | 1.6 | 0.0 | 0.00 | 0.00 | 0.43 | 78 | 1008.5 |
| 20260505180211 | 13 | 0 | 0.0 | 0.0 | 0.00 | 0.00 | 0.43 | 78 | 1008.3 |
| 20260505173210 | 13 | 53 | 0.0 | 0.0 | 0.00 | 0.00 | 0.36 | 80 | 1008.6 |
| 20260505170210 | 14 | 0 | 0.0 | 0.0 | 0.00 | 0.00 | 0.36 | 81 | 1008.2 |
| 20260505163211 | 14 | 0 | 0.0 | 0.0 | 0.00 | 0.00 | 0.33 | 81 | 1008.2 |
| 20260505153210 | 14 | 149 | 3.2 | 0.0 | 0.00 | 0.00 | 0.33 | 77 | 1008.2 |
| 20260505150216 | 13 | 86 | 1.6 | 0.0 | 0.00 | 0.00 | 0.33 | 78 | 1008.7 |
| 20260505140210 | 13 | 5 | 8.0 | 0.0 | 0.00 | 0.00 | 0.30 | 80 | 1009.2 |
| 20260505130210 | 15 | 252 | 14.5 | 0.0 | 0.00 | 0.00 | 0.08 | 82 | 1009.2 |
| 20260505123210 | 18 | 323 | 1.6 | 0.0 | 0.00 | 0.00 | 0.00 | 70 | 1008.1 |
| 20260505120210 | 19 | 329 | 4.8 | 0.0 | 0.00 | 0.00 | 0.00 | 67 | 1008.1 |
| 20260505113210 | 19 | 309 | 3.2 | 0.0 | 0.00 | 0.00 | 0.00 | 72 | 1008.0 |
| 20260505110211 | 19 | 338 | 8.0 | 0.0 | 0.00 | 0.00 | 0.00 | 65 | 1008.2 |
| 20260505100212 | 20 | 205 | 8.0 | 0.0 | 0.00 | 0.00 | 0.00 | 65 | 1008.6 |
| 20260505093212 | 19 | 320 | 4.8 | 0.0 | 0.00 | 0.00 | 0.00 | 72 | 1008.8 |
| 20260505090212 | 17 | 71 | 6.4 | 0.0 | 0.00 | 0.00 | 0.00 | 76 | 1009.2 |
| 20260505083211 | 16 | 207 | 6.4 | 0.0 | 0.00 | 0.00 | 0.00 | 76 | 1009.5 |
| 20260505080210 | 15 | 244 | 4.8 | 0.0 | 0.00 | 0.00 | 0.00 | 79 | 1009.8 |
| 20260505073211 | 15 | 195 | 0.0 | 0.0 | 0.00 | 0.00 | 0.00 | 80 | 1009.9 |
| 20260505070211 | 13 | 159 | 0.0 | 0.0 | 0.00 | 0.00 | 0.00 | 82 | 1010.2 |
| 20260505063211 | 13 | 157 | 0.0 | 0.0 | 0.00 | 0.00 | 0.00 | 83 | 1010.3 |
| 20260505060212 | 12 | 296 | 0.0 | 0.0 | 0.00 | 0.00 | 0.00 | 83 | 1010.4 |
| 20260505053211 | 11 | 296 | 0.0 | 0.0 | 0.00 | 0.00 | 0.00 | 83 | 1010.4 |
| 20260505050211 | 10 | 296 | 0.0 | 0.0 | 0.00 | 0.00 | 0.00 | 83 | 1010.7 |
| 20260505040211 | 10 | 238 | 0.0 | 0.0 | 0.00 | 0.00 | 0.00 | 84 | 1010.6 |
| 20260505033211 | 10 | 5 | 0.0 | 0.0 | 0.00 | 0.00 | 0.00 | 84 | 1010.7 |
| 20260505030213 | 11 | 15 | 0.0 | 0.0 | 0.00 | 0.00 | 0.00 | 84 | 1011.1 |
| 20260505023211 | 11 | 15 | 0.0 | 0.0 | 0.00 | 0.00 | 0.00 | 83 | 1011.3 |
| 20260505020211 | 12 | 15 | 0.0 | 0.0 | 0.00 | 0.00 | 0.00 | 82 | 1011.6 |